Location: Ostrava
(49.8330°N, 18.2830°E)
Time: 13:09:33
(UTC+02:00)

Lacrosse 5 - Visible Passes

Search period start: 06 May 2016 00:00
Search period end: 16 May 2016 00:00
Orbit: 714 x 723 km, 57.0° (Epoch: 05 May)

Date Brightness Start Highest point End Pass type
(mag) Time Alt. Az. Time Alt. Az. Time Alt. Az.
06 May 4.2 00:34:23 11° E 00:34:23 11° E 00:34:50 10° E visible
06 May 2.0 02:13:33 47° S 02:14:40 58° SE 02:19:39 10° ENE visible
06 May 2.6 03:52:51 10° W 03:57:46 50° NNW 04:02:42 10° NE visible
07 May 2.6 01:21:42 36° SE 01:21:42 36° SE 01:26:03 10° ENE visible
07 May 2.1 03:00:52 21° WSW 03:04:12 66° NNW 03:09:15 10° NE visible
08 May 3.6 00:29:48 19° ESE 00:29:48 19° ESE 00:32:10 10° ENE visible
08 May 1.8 02:08:57 41° SW 02:10:43 87° SE 02:15:48 10° ENE visible
08 May 3.0 03:49:19 10° W 03:54:07 41° NNW 03:58:55 10° ENE visible
09 May 1.9 01:16:59 56° SSE 01:17:22 57° SE 01:22:21 10° ENE visible
09 May 2.6 02:56:07 13° W 03:00:27 50° NNW 03:05:24 10° NE visible
10 May 2.7 00:24:56 33° ESE 00:24:56 33° ESE 00:28:43 10° ENE visible
10 May 2.1 02:04:04 26° WSW 02:06:53 67° NNW 02:11:56 10° NE visible
10 May 3.2 03:45:47 10° WNW 03:50:30 37° N 03:55:13 10° ENE visible
10 May 3.6 23:32:48 18° E 23:32:48 18° E 23:34:49 10° ENE visible
11 May 1.7 01:11:56 47° SW 01:13:25 86° SE 01:18:31 10° ENE visible
11 May 3.0 02:51:59 10° W 02:56:47 41° NNW 03:01:36 10° ENE visible
12 May 1.9 00:19:39 54° SSE 00:20:03 56° SE 00:25:01 10° ENE visible
12 May 2.6 01:58:46 13° W 02:03:08 51° NNW 02:08:05 10° NE visible
12 May 3.4 03:42:13 10° WNW 03:46:55 36° N 03:51:36 10° ENE visible
12 May 2.5 23:27:12 34° ESE 23:27:12 34° ESE 23:31:24 10° ENE visible
13 May 2.1 01:06:18 22° WSW 01:09:34 68° NNW 01:14:38 10° NE visible
13 May 3.3 02:48:28 10° WNW 02:53:11 37° N 02:57:53 10° ENE visible
13 May 3.2 22:34:26 20° ESE 22:34:26 20° ESE 22:37:29 10° ENE visible
14 May 1.7 00:13:30 29° SW 00:16:07 85° SE 00:21:12 10° ENE visible
14 May 3.1 01:54:39 10° W 01:59:28 42° NNW 02:04:17 10° ENE visible
14 May 3.3 03:38:33 10° WNW 03:43:19 39° N 03:48:04 10° E visible
14 May 3.7 21:41:07 12° ESE 21:41:07 12° ESE 21:42:34 10° E visible
14 May 1.9 23:20:08 26° SSW 23:22:45 55° SE 23:27:42 10° ENE visible
15 May 2.7 01:00:52 10° W 01:05:49 51° NNW 01:10:47 10° NE visible
15 May 3.4 02:44:53 10° WNW 02:49:35 36° N 02:54:17 10° ENE visible
15 May 2.4 22:25:00 10° SSW 22:29:32 34° SE 22:34:05 10° ENE visible
